Погода в Лыхме

Россия / Ханты-Мансийский автономный округ - Югра     63°13′06″N   66°56′47″E
темп.,
°C
ветер,
м/с
пор.,
м/с
влажн.,
%
обл.,
%
осадки,
мм/ч
давл.,
гПа
погр.,
м
14 мая, пт
пт1423:00+8ю22485 0.0 102313
02:00+8ю311555 0.0 1021222
05:00+10ююз415612 0.1 1018364
08:00+17юз515530 0.0 1014511
11:00+24з613350 0.0 10122304
14:00+27зсз7132861 0.0 10113664
17:00+23з7123691 0.0 10121340
20:00+20сз245113 0.1 101186
15 мая, сб
сб1523:00+15зсз2479100 0.9 1012105
02:00+13в1386100 1.4 1012157
05:00+11всв369281 4.6 1013268
08:00+11всв3587100 0.0 1014410
11:00+10в3583100 0.0 1014462
14:00+12вюв3478100 0.0 1014463
17:00+10ссв4583100 0.1 1014357
20:00+6св348591 0.0 1015246
16 мая, вс
вс1623:00+5св2488100 0.0 1016229
02:00+4св1195100 0.0 101541
05:00+4ссв1192100 0.0 1015103
08:00+5в1396100 2.3 1014183
11:00+5ссв2496100 4.9 1013225
14:00+5св3595100 3.8 1014262
17:00+6св3488100 3.9 1015477
20:00+5св3693100 0.9 1015410
17 мая, пн
пн1723:00+4всв2595100 0.9 1016278
02:00+3всв2497100 0.0 1016240
05:00+3всв2595100 0.0 1017243
08:00+4в2493100 0.2 1018312
11:00+4в2693100 2.4 1018397
14:00+5в2591100 0.4 1018408
17:00+5в2693100 1.4 1018285
20:00+6всв139094 0.0 1018123
18 мая, вт
вт1823:00+4всв119346 0.0 101912
02:00+2всв2490100 0.0 101969
05:00+2всв388613 0.0 1021196
08:00+6всв35608 0.0 1022493
11:00+10всв45439 0.0 10231467
14:00+11св4434100 0.0 10231674
17:00+11св33324 0.0 10241580
20:00+8св244498 0.0 1024103